Location: Auckland
(36.8670°S, 174.7670°E)
Time: 12:30:09
(UTC+13:00)

Meteor 1-25 Rocket - Pass Details

Date: 24 January 2019
Orbit: 836 x 892 km, 81.2° (Epoch: 19 February)

Event Time Altitude Azimuth Distance (km) Brightness Sun altitude
Rises 23:16:54 0° 189° (S) 3,518 8.4 -25.4°
Reaches altitude 10° 23:19:21 10° 188° (S) 2,578 7.5 -25.7°
Maximum altitude 23:25:16 88° 97° (E) 905 4.2 -26.3°
Enters shadow 23:25:56 72° 15° (NNE) 945 4.1 -26.4°
